When you browse on this site, cookies collect data to enhance your experience and personalize the content and advertising you see.
Visit our Privacy Policy to learn more. By continuing to use the site, you agree to this use of cookies and data.
  • In Denmark
  • List of Countries
  • For 7 days
  • Water Temperature
  • Satellite Maps
  • Weather Map
  • Weather Widgets
  • user-avatar
    Login

    Hourly Weather Iraklion

    Today, 22 March, Friday

    Time Temperature Precipitation Wind Pressure Humidity
    00:00 +13°C° 0 mm 4 mps 759 mmHg 91%
    01:00 +13°C° 0 mm 5 mps 759 mmHg 91%
    02:00 +13°C° 0 mm 5 mps 759 mmHg 92%
    03:00 +13°C° 0 mm 5 mps 758 mmHg 92%
    04:00 +12°C° 0 mm 5 mps 758 mmHg 92%
    05:00 +12°C° 0 mm 5 mps 758 mmHg 92%
    06:00 +13°C° 0 mm 5 mps 758 mmHg 89%
    07:00 +13°C° 0 mm 5 mps 759 mmHg 87%
    08:00 +14°C° 0 mm 5 mps 759 mmHg 84%
    09:00 +15°C° 0 mm 5 mps 759 mmHg 79%
    10:00 +16°C° 0 mm 5 mps 759 mmHg 75%
    11:00 +17°C° 0 mm 5 mps 759 mmHg 70%
    12:00 +17°C° 0 mm 5 mps 759 mmHg 69%
    13:00 +17°C° 0 mm 5 mps 759 mmHg 68%
    14:00 +17°C° 0 mm 5 mps 759 mmHg 67%
    15:00 +16°C° 0 mm 5 mps 758 mmHg 69%
    16:00 +15°C° 0 mm 5 mps 758 mmHg 70%
    17:00 +15°C° 0 mm 5 mps 757 mmHg 72%
    18:00 +14°C° 0 mm 5 mps 757 mmHg 76%
    19:00 +12°C° 0 mm 4 mps 758 mmHg 79%
    20:00 +11°C° 0 mm 4 mps 758 mmHg 82%
    21:00 +11°C° 0 mm 4 mps 758 mmHg 83%
    22:00 +11°C° 0 mm 4 mps 758 mmHg 84%
    23:00 +11°C° 0 mm 4 mps 758 mmHg 84%

    Tomorrow, 23 March, Saturday

    Time Temperature Precipitation Wind Pressure Humidity
    00:00 +11°C° 0 mm 4 mps 757 mmHg 85%
    01:00 +11°C° 0 mm 4 mps 757 mmHg 86%
    02:00 +11°C° 0 mm 4 mps 757 mmHg 87%
    03:00 +11°C° 0 mm 4 mps 757 mmHg 87%
    04:00 +11°C° 0 mm 4 mps 756 mmHg 87%
    05:00 +11°C° 0 mm 4 mps 756 mmHg 87%
    06:00 +11°C° 0 mm 4 mps 756 mmHg 85%
    07:00 +12°C° 0 mm 4 mps 756 mmHg 82%
    08:00 +13°C° 0 mm 4 mps 756 mmHg 79%
    09:00 +14°C° 0 mm 4 mps 756 mmHg 74%
    10:00 +17°C° 0 mm 4 mps 756 mmHg 68%
    11:00 +18°C° 0 mm 4 mps 757 mmHg 63%
    12:00 +18°C° 0 mm 4 mps 756 mmHg 63%
    13:00 +18°C° 0 mm 4 mps 756 mmHg 63%
    14:00 +17°C° 0 mm 5 mps 756 mmHg 63%
    15:00 +17°C° 0 mm 5 mps 756 mmHg 66%
    16:00 +16°C° 0 mm 5 mps 755 mmHg 69%
    17:00 +15°C° 0 mm 5 mps 755 mmHg 72%
    18:00 +14°C° 0 mm 4 mps 755 mmHg 76%
    19:00 +13°C° 0 mm 4 mps 755 mmHg 80%
    20:00 +12°C° 0 mm 4 mps 755 mmHg 84%
    21:00 +12°C° 0 mm 4 mps 755 mmHg 85%
    22:00 +11°C° 0 mm 4 mps 755 mmHg 86%
    23:00 +11°C° 0 mm 4 mps 755 mmHg 88%

    Day after tomorrow, 24 March, Sunday

    Time Temperature Precipitation Wind Pressure Humidity
    00:00 +12°C° 0 mm 4 mps 755 mmHg 88%
    01:00 +12°C° 0 mm 4 mps 755 mmHg 89%
    02:00 +12°C° 0 mm 4 mps 754 mmHg 90%
    03:00 +12°C° 0 mm 4 mps 754 mmHg 88%
    04:00 +12°C° 0 mm 4 mps 754 mmHg 87%
    05:00 +12°C° 0 mm 4 mps 754 mmHg 85%
    06:00 +11°C° 0 mm 6 mps 754 mmHg 75%
    07:00 +12°C° 0 mm 7 mps 754 mmHg 65%
    08:00 +12°C° 0 mm 8 mps 754 mmHg 55%
    09:00 +13°C° 0 mm 9 mps 754 mmHg 51%
    10:00 +14°C° 0 mm 10 mps 755 mmHg 47%
    11:00 +16°C° 0 mm 10 mps 755 mmHg 43%
    12:00 +14°C° 0 mm 10 mps 755 mmHg 44%
    13:00 +14°C° 0 mm 10 mps 754 mmHg 45%
    14:00 +14°C° 0 mm 10 mps 754 mmHg 47%
    15:00 +14°C° 0 mm 10 mps 754 mmHg 50%
    16:00 +13°C° 0 mm 10 mps 754 mmHg 53%
    17:00 +12°C° 0 mm 10 mps 754 mmHg 56%
    18:00 +12°C° 0 mm 9 mps 754 mmHg 58%
    19:00 +11°C° 0 mm 9 mps 755 mmHg 61%
    20:00 +10°C° 0 mm 8 mps 755 mmHg 63%
    21:00 +10°C° 0 mm 8 mps 755 mmHg 65%
    22:00 +10°C° 0 mm 7 mps 755 mmHg 67%
    23:00 +10°C° 0 mm 7 mps 755 mmHg 70%

    25 March, Monday

    Time Temperature Precipitation Wind Pressure Humidity
    00:00 +10°C° 0 mm 7 mps 755 mmHg 71%
    01:00 +10°C° 0 mm 6 mps 755 mmHg 72%
    02:00 +10°C° 0 mm 6 mps 755 mmHg 73%
    03:00 +10°C° 0 mm 6 mps 755 mmHg 72%
    04:00 +10°C° 0 mm 6 mps 755 mmHg 71%
    05:00 +10°C° 0 mm 6 mps 755 mmHg 71%
    06:00 +10°C° 0 mm 6 mps 755 mmHg 68%
    07:00 +11°C° 0 mm 7 mps 755 mmHg 66%
    08:00 +12°C° 0 mm 7 mps 755 mmHg 64%
    09:00 +14°C° 0 mm 7 mps 756 mmHg 61%
    10:00 +15°C° 0 mm 7 mps 756 mmHg 58%
    11:00 +16°C° 0 mm 7 mps 756 mmHg 55%
    12:00 +16°C° 0 mm 7 mps 756 mmHg 55%
    13:00 +16°C° 0 mm 7 mps 755 mmHg 55%
    14:00 +17°C° 0 mm 7 mps 755 mmHg 54%
    15:00 +16°C° 0 mm 6 mps 755 mmHg 57%
    16:00 +15°C° 0 mm 6 mps 755 mmHg 59%
    17:00 +15°C° 0 mm 6 mps 755 mmHg 61%
    18:00 +14°C° 0 mm 5 mps 755 mmHg 66%
    19:00 +12°C° 0 mm 5 mps 755 mmHg 72%
    20:00 +11°C° 0 mm 4 mps 755 mmHg 77%
    21:00 +11°C° 0 mm 4 mps 755 mmHg 76%
    22:00 +11°C° 0 mm 4 mps 755 mmHg 75%
    23:00 +11°C° 0 mm 4 mps 755 mmHg 74%

    26 March, Tuesday

    Time Temperature Precipitation Wind Pressure Humidity
    00:00 +11°C° 0 mm 4 mps 755 mmHg 73%
    01:00 +11°C° 0 mm 4 mps 754 mmHg 73%
    02:00 +11°C° 0 mm 4 mps 754 mmHg 72%
    03:00 +11°C° 0 mm 4 mps 754 mmHg 75%
    04:00 +10°C° 0 mm 3 mps 754 mmHg 77%
    05:00 +10°C° 0 mm 3 mps 754 mmHg 80%
    06:00 +12°C° 0 mm 3 mps 754 mmHg 76%
    07:00 +14°C° 0 mm 2 mps 754 mmHg 73%
    08:00 +15°C° 0 mm 2 mps 754 mmHg 69%
    09:00 +16°C° 0 mm 2 mps 754 mmHg 63%
    10:00 +18°C° 0 mm 3 mps 754 mmHg 57%
    11:00 +19°C° 0 mm 3 mps 754 mmHg 51%
    12:00 +19°C° 0.1 mm 3 mps 754 mmHg 53%
    13:00 +19°C° 0.1 mm 4 mps 754 mmHg 56%
    14:00 +20°C° 0.1 mm 4 mps 753 mmHg 58%
    15:00 +19°C° 0.2 mm 4 mps 753 mmHg 62%
    16:00 +18°C° 0.2 mm 4 mps 753 mmHg 66%
    17:00 +17°C° 0.2 mm 4 mps 753 mmHg 70%
    18:00 +15°C° 0 mm 4 mps 753 mmHg 75%
    19:00 +14°C° 0 mm 4 mps 753 mmHg 81%
    20:00 +12°C° 0 mm 3 mps 753 mmHg 86%
    21:00 +12°C° 0 mm 3 mps 753 mmHg 86%
    22:00 +12°C° 0 mm 3 mps 753 mmHg 87%
    23:00 +11°C° 0 mm 3 mps 753 mmHg 87%

    27 March, Wednesday

    Time Temperature Precipitation Wind Pressure Humidity
    00:00 +11°C° 0 mm 3 mps 753 mmHg 87%
    01:00 +11°C° 0 mm 3 mps 753 mmHg 87%
    02:00 +11°C° 0 mm 3 mps 753 mmHg 87%
    03:00 +11°C° 0 mm 3 mps 752 mmHg 87%
    04:00 +11°C° 0 mm 3 mps 752 mmHg 88%
    05:00 +11°C° 0 mm 3 mps 752 mmHg 88%
    06:00 +12°C° 0 mm 3 mps 752 mmHg 86%
    07:00 +13°C° 0 mm 4 mps 752 mmHg 83%
    08:00 +14°C° 0 mm 4 mps 752 mmHg 81%
    09:00 +14°C° 0.1 mm 4 mps 752 mmHg 78%
    10:00 +15°C° 0.1 mm 4 mps 752 mmHg 76%
    11:00 +15°C° 0.1 mm 4 mps 752 mmHg 73%
    12:00 +15°C° 0.1 mm 5 mps 752 mmHg 72%
    13:00 +15°C° 0.1 mm 5 mps 752 mmHg 70%
    14:00 +15°C° 0.1 mm 6 mps 752 mmHg 69%
    15:00 +14°C° 0.1 mm 7 mps 751 mmHg 71%
    16:00 +12°C° 0.1 mm 9 mps 751 mmHg 73%
    17:00 +11°C° 0.1 mm 10 mps 751 mmHg 75%
    18:00 +10°C° 0.5 mm 9 mps 751 mmHg 78%
    19:00 +7°C° 0.5 mm 8 mps 751 mmHg 81%
    20:00 +6°C° 0.5 mm 8 mps 751 mmHg 84%
    21:00 +7°C° 3.4 mm 10 mps 751 mmHg 84%
    22:00 +7°C° 3.4 mm 12 mps 752 mmHg 84%
    23:00 +8°C° 3.4 mm 14 mps 752 mmHg 84%
    Show more